Theta_e
328 333 345 344 342 341 340 341 344 345 346 346 347 347 346 345 342 341 340 338 337 335 334 334 334 333 334 335 335 334 333 333 333 333 334 334 334 333 332 332 332 327 331
331 336 344 344 338 339 341 341 344 344 344 346 346 346 345 344 342 340 339 337 336 335 334 333 333 333 332 332 332 332 331 331 331 331 331 331 332 331 331 331 331 327 330
333 338 341 342 343 340 342 341 344 344 343 342 342 343 344 344 342 340 339 338 336 336 335 333 332 331 331 331 330 330 331 333 332 331 330 322 323 330 329 330 330 329 329
336 338 339 342 345 343 343 341 344 343 343 342 341 340 338 338 340 340 340 339 337 335 335 333 332 331 330 329 328 329 331 332 329 326 318 320 322 330 328 327 329 330 327
335 338 339 343 345 344 344 344 344 342 339 337 336 336 336 335 334 333 335 337 339 335 335 334 333 332 331 330 331 330 331 330 328 321 315 316 319 326 330 328 327 327 327
334 337 340 344 344 342 342 340 339 338 338 337 336 335 334 334 333 332 332 332 334 337 336 333 333 332 331 331 332 333 333 331 326 316 314 315 317 330 333 330 328 327 327
333 336 339 342 344 343 341 340 339 339 337 336 334 334 332 332 332 331 331 330 331 332 334 335 334 333 332 333 333 332 331 330 320 314 312 311 312 327 332 333 331 331 332
333 336 337 336 339 341 342 342 342 341 338 336 334 334 332 332 332 331 331 331 330 329 329 330 332 333 332 331 330 329 331 329 321 315 315 314 320 327 330 332 332 331 331
332 336 335 336 335 334 338 339 341 342 340 339 338 337 336 335 334 334 335 333 332 332 331 331 331 331 331 330 330 331 329 327 320 317 318 316 322 329 333 333 333 333 332
330 333 332 333 334 335 335 333 335 337 338 337 336 334 332 332 332 332 330 332 333 334 334 334 335 333 333 333 334 331 328 327 320 319 318 318 327 331 333 335 335 334 333
328 328 329 329 330 331 331 331 328 330 333 333 331 329 327 327 327 327 327 329 332 333 334 335 337 336 334 331 330 329 327 322 320 319 319 323 329 334 335 336 335 335 335
322 324 326 326 327 327 332 330 331 332 333 332 329 328 327 326 326 327 323 325 328 328 331 333 334 333 328 325 323 324 321 321 320 320 320 326 331 335 336 336 336 337 336
322 323 326 325 325 325 326 326 326 328 329 330 327 327 325 325 322 321 321 323 323 321 323 324 323 323 322 322 322 321 321 320 320 321 322 326 330 334 336 336 336 336 336
323 323 325 326 325 324 324 324 324 324 324 324 325 326 324 323 321 320 319 319 320 321 321 320 320 321 321 322 322 321 321 321 322 322 321 322 326 332 336 336 336 336 336
323 325 326 326 326 326 324 324 322 322 322 322 322 323 324 322 320 320 320 320 320 320 320 320 320 320 321 321 322 322 322 323 323 323 323 320 323 329 334 336 336 336 337
325 325 327 328 328 327 326 325 324 323 324 323 323 323 324 323 321 321 321 321 320 321 321 320 320 321 321 321 321 322 322 323 323 323 324 324 323 327 330 333 335 337 337
326 326 326 327 329 327 327 326 326 326 326 325 325 325 325 325 323 322 321 321 322 322 322 322 321 321 320 321 321 322 322 322 322 322 323 322 322 321 324 329 332 334 335
325 326 327 329 328 327 327 327 326 326 326 326 326 326 326 326 325 324 323 323 324 323 325 325 324 324 325 325 325 326 321 321 321 321 321 321 320 321 322 325 327 329 331
325 325 325 326 326 326 326 326 326 326 326 326 326 326 326 327 327 325 326 327 327 327 327 326 326 324 324 324 321 317 316 315 315 316 316 317 317 318 319 321 320 320 323
321 322 322 323 324 325 325 324 324 324 324 324 324 323 325 325 326 329 329 328 327 327 325 322 321 318 319 314 314 314 313 314 314 313 314 316 315 315 314 313 313 315 317
309 312 312 318 311 321 321 321 320 320 319 318 314 315 315 316 317 318 318 320 320 319 315 314 313 311 310 311 308 309 310 312 311 311 311 310 310 309 308 309 308 309 311
304 306 307 307 307 308 311 312 315 313 310 310 312 312 312 313 313 314 313 312 311 310 309 310 310 311 312 310 308 307 303 307 309 310 309 308 307 306 306 306 306 306 306
302 303 303 303 303 304 306 308 308 308 308 307 307 307 309 310 311 310 309 308 307 307 306 306 309 311 309 311 312 310 303 300 306 307 307 305 304 302 302 303 303 303 303
300 301 301 301 301 302 303 304 304 303 302 302 303 302 303 306 304 306 306 305 304 304 303 303 305 305 307 307 309 311 309 309 304 302 305 306 302 303 302 301 301 301 301
299 298 298 298 299 298 298 300 299 298 299 298 297 296 297 299 299 299 300 299 299 299 299 299 299 300 301 301 300 302 302 303 304 303 298 300 304 304 302 301 299 298 298
299 298 298 298 296 297 296 295 295 294 294 294 293 293 294 295 295 294 295 295 295 295 295 296 296 296 296 296 296 297 298 298 298 298 297 296 296 298 299 301 299 298 297
Wind_Speed
4 6 11 13 12 12 11 11 11 11 14 15 15 15 14 15 14 13 12 12 11 11 12 11 11 11 11 11 12 11 11 10 10 10 11 10 9 9 8 7 7 6 9
8 6 11 13 12 13 13 12 10 11 13 14 14 13 13 13 12 12 11 11 10 10 10 10 11 10 9 10 9 10 10 9 9 8 7 8 9 8 7 7 6 6 7
10 6 8 14 13 14 13 12 10 11 11 12 12 12 11 11 10 10 9 9 9 8 9 9 9 9 9 8 8 8 9 10 11 9 6 3 5 7 6 6 5 6 6
9 6 8 13 13 15 13 12 10 10 9 10 9 9 9 9 8 8 7 7 6 6 6 7 8 8 8 7 7 7 8 9 10 8 4 4 5 8 5 4 4 5 5
7 6 8 12 14 15 12 12 11 9 8 8 7 7 7 7 6 5 5 5 6 5 4 5 5 5 5 5 6 6 7 7 7 6 4 4 3 7 6 6 5 6 6
7 6 10 13 13 13 12 10 10 9 8 7 6 6 5 5 5 5 4 3 3 5 2 3 2 2 2 3 5 6 7 8 7 5 5 6 6 9 10 6 6 7 7
7 6 7 12 12 11 11 10 9 8 7 6 5 5 5 4 4 3 3 3 2 2 3 3 2 2 4 5 7 8 8 7 5 4 5 5 6 10 11 11 9 9 9
9 6 5 8 9 9 9 9 7 7 7 7 6 6 5 5 4 3 2 1 1 2 2 3 3 5 7 8 8 8 7 7 4 5 5 5 9 12 12 13 12 11 12
6 8 5 5 5 7 7 8 8 8 7 6 5 4 4 2 2 2 3 4 5 5 5 6 7 8 8 9 9 8 9 9 5 4 5 4 10 13 13 13 14 13 13
6 7 5 5 5 5 5 7 6 5 7 6 5 4 3 3 3 3 4 6 7 8 8 9 8 9 10 10 9 9 9 9 5 5 4 4 12 13 14 15 15 15 14
4 5 5 5 5 5 4 3 4 5 7 5 4 4 3 2 3 4 5 6 8 9 10 10 10 10 10 10 10 10 9 3 5 4 3 10 14 15 15 16 15 16 16
6 5 5 5 5 5 3 3 4 3 3 3 3 3 2 3 4 4 5 7 7 8 10 10 11 9 7 4 3 6 3 5 4 4 4 12 15 16 17 18 17 18 18
6 4 6 5 5 6 4 3 2 2 3 3 3 3 2 2 3 3 3 3 4 5 4 5 5 3 5 4 4 4 4 5 3 4 6 13 16 16 17 19 18 19 19
7 7 6 6 5 5 2 3 3 2 2 2 3 3 2 2 3 4 3 4 3 3 4 4 3 5 5 5 5 6 6 5 4 4 6 13 16 19 19 18 20 20 20
7 7 7 7 6 4 4 2 2 3 3 3 3 4 3 3 4 3 4 3 4 3 4 4 4 4 5 5 5 5 7 7 7 5 5 12 14 18 20 22 21 22 22
6 7 6 6 6 5 5 5 4 3 4 3 4 4 5 4 4 4 4 4 4 4 4 4 4 4 4 4 6 6 8 7 7 7 6 6 12 14 18 21 22 23 24
5 5 7 7 6 6 6 5 4 4 3 4 4 5 5 5 5 5 4 4 5 4 5 4 4 3 4 4 7 6 6 6 6 7 7 5 6 9 14 18 20 21 23
4 7 6 5 6 7 6 4 4 3 3 4 3 3 5 5 5 4 4 4 4 3 3 3 3 5 4 3 4 6 5 5 8 8 7 5 4 4 7 12 15 18 20
7 6 6 6 6 6 3 2 3 4 3 2 2 3 5 5 5 4 4 4 3 3 3 3 2 2 4 4 5 5 7 7 7 6 6 6 5 4 4 9 11 12 14
2 2 3 2 2 2 2 2 2 1 1 2 3 4 5 4 5 4 3 3 3 3 3 3 3 3 3 4 5 6 6 7 5 4 5 4 5 5 4 6 5 6 13
6 6 5 5 5 2 1 1 2 2 2 4 4 6 7 6 7 6 4 5 5 4 5 4 3 4 3 4 3 4 5 6 3 3 3 4 4 4 4 4 4 4 6
7 7 7 7 6 5 3 2 2 3 4 4 3 6 7 7 7 6 6 5 6 4 5 5 5 5 4 3 3 3 4 5 3 4 4 4 6 4 4 5 6 6 5
8 7 7 7 6 6 5 2 3 3 3 4 4 4 7 8 8 8 7 6 6 5 4 4 6 6 5 5 5 3 4 3 9 4 5 3 5 4 5 5 6 6 6
6 7 7 6 7 7 7 6 6 3 3 2 2 3 5 8 9 8 7 6 5 4 5 4 4 3 4 5 4 3 4 5 5 7 1 6 3 5 6 4 5 6 6
6 7 7 7 8 8 8 7 5 6 4 3 4 6 6 5 7 8 7 6 6 5 5 5 5 5 2 2 2 4 3 3 6 4 11 4 9 7 6 5 5 5 6
6 7 8 10 8 8 8 8 9 8 6 5 5 4 4 4 5 8 8 7 6 5 5 4 5 5 4 3 2 3 2 3 4 5 8 11 11 7 4 7 6 5 5
Wind_Direction
186 168 142 132 129 128 129 121 108 92 93 105 110 108 107 99 97 92 90 87 82 77 74 73 73 73 76 73 70 66 58 50 42 38 31 26 31 31 31 37 34 352 34
142 156 147 134 134 137 135 131 116 104 94 95 101 105 105 101 96 94 89 87 81 76 75 71 69 72 74 73 67 57 46 34 19 1 10 22 11 24 30 27 33 21 26
143 145 146 137 145 138 133 140 126 111 103 98 96 92 90 98 107 104 96 91 81 75 72 73 72 69 66 63 56 48 38 26 14 23 31 15 346 7 19 20 14 22 20
139 133 135 138 133 137 138 141 128 115 106 100 95 92 89 84 79 76 77 71 98 88 74 72 65 61 55 51 47 40 30 26 24 28 19 358 338 333 358 355 353 359 355
114 125 139 141 136 138 145 140 127 119 112 101 95 92 93 92 89 90 81 53 42 89 90 68 61 51 43 34 30 21 14 19 26 18 3 339 306 309 330 336 327 317 314
117 118 142 144 144 142 139 135 130 128 121 114 110 109 109 113 112 107 97 74 46 20 184 89 91 46 14 3 349 348 353 359 16 358 338 329 321 296 308 307 307 307 300
122 123 137 144 142 141 142 139 137 131 123 117 118 121 121 133 141 131 115 109 102 59 47 5 142 294 307 314 321 330 338 347 2 343 324 318 312 301 295 300 297 288 290
134 126 131 132 135 142 148 145 149 148 143 146 151 151 152 159 172 186 190 208 297 315 315 302 289 282 288 298 312 320 326 332 342 319 314 308 303 305 302 296 297 294 293
119 134 126 139 142 151 160 161 169 177 167 162 168 174 170 174 218 251 287 300 302 301 302 298 292 290 295 303 309 316 322 322 322 301 301 297 300 301 301 299 293 291 293
128 145 145 147 157 169 179 186 193 207 183 181 188 202 212 233 264 290 297 298 295 298 298 298 294 294 297 303 307 306 305 308 303 295 283 279 295 296 297 297 291 289 289
140 159 160 166 173 177 190 202 223 243 199 200 213 228 249 266 288 290 281 280 287 294 298 300 299 296 298 302 302 301 306 294 291 280 276 281 289 292 295 297 294 287 285
169 184 182 177 181 179 185 182 206 212 209 217 224 234 258 274 281 285 289 284 278 281 285 288 293 296 297 283 282 294 283 284 284 280 275 281 291 291 293 292 294 288 285
177 178 185 187 194 187 198 183 202 196 206 233 251 257 278 307 314 311 309 309 315 314 304 303 296 285 288 286 289 291 288 284 268 267 266 273 281 284 290 293 294 292 290
171 190 188 189 194 207 187 199 203 212 223 252 260 250 237 253 257 256 254 267 270 267 280 280 286 284 278 273 270 280 276 272 271 268 259 263 272 279 277 279 284 287 288
180 185 198 180 192 196 206 219 221 214 224 237 250 254 234 256 266 268 261 261 264 269 258 273 270 273 278 276 273 260 269 264 259 263 265 258 263 272 279 288 286 287 287
190 190 191 192 189 180 199 205 218 226 225 223 236 236 231 226 240 253 271 265 258 245 261 262 264 273 278 281 283 265 265 267 267 263 264 267 263 271 281 288 290 288 289
196 197 193 196 188 197 202 213 210 224 218 236 239 242 243 233 240 246 258 273 264 265 271 270 280 282 288 275 274 277 268 272 266 263 264 259 270 271 274 286 293 296 297
177 188 201 190 185 206 211 212 220 229 229 252 261 275 269 263 248 252 251 259 275 274 266 275 276 296 281 270 285 298 297 286 284 277 274 262 258 271 282 287 295 302 307
202 204 212 202 208 212 217 189 231 249 241 278 312 304 299 289 278 247 250 272 291 295 289 297 310 280 298 306 307 300 290 287 287 291 287 289 287 294 305 312 320 316 317
138 106 110 163 204 183 145 161 225 271 355 35 17 5 359 356 350 328 336 7 9 3 16 3 326 312 292 299 304 299 285 279 281 299 298 305 319 332 340 330 330 326 326
57 74 59 90 20 54 74 51 38 38 27 59 46 34 29 28 26 30 21 39 27 31 16 7 340 338 341 346 316 297 281 266 312 301 306 330 338 343 335 330 324 323 318
78 71 67 68 49 41 52 53 87 99 75 75 54 38 26 29 28 43 29 30 29 26 21 16 19 346 317 359 320 283 326 330 347 337 353 338 321 320 331 322 313 310 312
68 64 71 65 56 46 46 88 64 59 53 31 19 24 21 29 31 36 34 31 30 32 30 15 14 358 333 334 7 308 332 300 331 320 331 322 320 323 317 308 299 291 290
76 71 67 62 62 52 43 54 66 81 92 41 29 27 31 34 35 33 31 31 32 24 27 8 14 11 348 336 329 46 301 298 314 313 307 319 318 304 299 293 285 288 290
95 89 77 63 50 47 63 66 77 77 80 67 40 42 34 34 39 28 26 24 25 20 16 17 9 6 355 306 338 333 318 301 265 318 301 302 306 299 291 285 287 283 282
54 69 82 71 46 44 56 60 68 72 64 59 35 31 18 15 27 22 19 20 18 12 13 2 358 0 356 335 320 323 295 319 326 314 307 312 297 282 289 281 273 273 282